862  
ASUS43 KDMX 202306  
RWRIA  
 
WEATHER ROUNDUP FOR IOWA  
NATIONAL WEATHER SERVICE DES MOINES IA  
500 PM CST TUE FEB 20 2018  
 
NOTE: "FAIR" INDICATES FEW OR NO CLOUDS BELOW 12,000 FEET WITH NO  
SIGNIFICANT WEATHER AND/OR S TO VISIBILITY
.  
 
* - THESE STATIONS ARE NOT NWS STATIONS...THUS NOT UNDER NWS  
QUALITY CONTROL. THEY ALSO DO NOT REPORT WEATHER SUCH  
AS PRECIPITATION OR FOG.
 
 
IAZ001>003-012>014-020>022-031>034-043>046-210000-  
NORTHWEST IOWA  
 
CITY SKY/WX TMP DP RH WIND PRES REMARKS
 
CARROLL * CLOUDY 16 12 86 NW20 30.20R WCI -1  
CHEROKEE * FAIR 15 9 75 NW15 30.23R WCI 0  
DENISON * FLURRIES 16 10 79 NW18 30.24R WCI -1  
LE MARS * CLOUDY 14 7 73 NW16G22 30.25R WCI -2  
ORANGE CITY * FAIR 14 9 79 NW18G26 30.22R WCI -3  
SHELDON * CLOUDY 12 7 79 NW18G25 30.20R WCI -5  
SIOUX CITY FAIR 14 6 70 NW23 30.27R WCI -5  
SPENCER MOCLDY 15 7 70 NW17 30.20R WCI -1  
STORM LAKE * MOCLDY 14 9 79 NW22 30.19R WCI -4  

 
 
IAZ055>058-069>071-079>083-090>094-210000-  
SOUTHWEST IOWA  
 
CITY SKY/WX TMP DP RH WIND PRES REMARKS
 
ATLANTIC * CLOUDY 18 12 79 NW18 30.22R WCI 2  
AUDUBON * MOCLDY 18 10 73 NW10 30.21R WCI 6  
CLARINDA * CLOUDY 19 16 86 N16 30.25R WCI 5  
COUNCIL BLFS * CLOUDY 18 14 86 N16G23 30.23R WCI 3  
CRESTON * FLURRIES 19 16 86 NW17G24 30.19R WCI 4  
HARLAN * FLURRIES 16 12 86 NW16G23 30.26R WCI 0  
LAMONI CLOUDY 21 16 81 NW18 30.17R WCI 6  
RED OAK * PTSUNNY 19 12 73 NW14G21 30.24R WCI 6  
SHENANDOAH * CLOUDY 19 14 79 N14G21 30.25R WCI 6  

 
 
IAZ047>049-059>061-072>074-084-210000-  
CENTRAL IOWA  
 
CITY SKY/WX TMP DP RH WIND PRES REMARKS
 
AMES CLOUDY 20 14 77 NW17 30.18R WCI 5  
ANKENY * CLOUDY 21 16 79 NW13G22 30.20R WCI 9  
BOONE * FLURRIES 19 14 79 MISG 30.16R  
CHARITON * CLOUDY 21 19 93 NW17 30.16R WCI 7  
DES MOINES FLURRIES 21 15 78 NW15 30.18R WCI 8  
GRINNELL* CLOUDY 23 19 87 NW15 30.15R WCI 10  
KNOXVILLE * CLOUDY 23 18 80 NW18 30.15R WCI 9  
MARSHALLTOWN CLOUDY 22 17 81 NW22 30.14R WCI 6  
NEWTON * CLOUDY 21 18 86 NW17 30.15R WCI 7  
PELLA * CLOUDY 23 19 83 NW10G17 30.17R WCI 12  
PERRY * CLOUDY 19 15 83 NW15G21 30.19R WCI 5  

 
 
IAZ004>006-015-016-023>025-035-036-210000-  
NORTH CENTRAL IOWA  
 
CITY SKY/WX TMP DP RH WIND PRES REMARKS
 
ALGONA * FAIR 16 N/A N/A NW16G22 30.17R WCI 0  
CLARION * CLOUDY 18 18 100 NW22G29 30.16R WCI 0  
ESTHERVILLE FAIR 14 6 70 NW20G28 30.18R WCI -3  
FORT DODGE * FLURRIES 17 10 74 NW14G21 30.18R WCI 3  
MASON CITY CLOUDY 15 10 80 NW23G30 30.15R WCI -3  
FOREST CITY * MOCLDY 18 12 79 NW12G17 30.15R WCI 5  
WEBSTER CITY * CLOUDY 18 12 79 NW24 30.15R WCI 0  
IOWA FALLS * CLOUDY 20 16 82 NW15 30.15R WCI 7  

 
 
IAZ007>011-017>019-026>030-037>042-050>054-066-210000-  
NORTHEAST IOWA  
 
CITY SKY/WX TMP DP RH WIND PRES REMARKS
 
CEDAR RAPIDS CLOUDY 26 20 77 NW21 30.10R WCI 12  
CHARLES CITY * FLURRIES 19 19 100 NW22 30.12R WCI 3  
CLINTON * N/A 31 28 89 MISG N/A  
DECORAH * CLOUDY 21 19 93 NW12G20 30.05R WCI 9  
DUBUQUE CLOUDY 28 22 78 W17 30.05R WCI 16  
MONTICELLO * CLOUDY 27 23 86 NW18G25 30.08R WCI 13  
OELWEIN * CLOUDY 23 23 100 NW20G28 30.10R WCI 8  
WATERLOO CLOUDY 21 17 84 W15G21 30.13R WCI 8  

 
 
IAZ064-065-067-068-078-210000-  
EAST CENTRAL IOWA  
 
CITY SKY/WX TMP DP RH WIND PRES REMARKS
 
DAVENPORT CLOUDY 32 26 78 W14 30.09R WCI 22  
IOWA CITY CLOUDY 29 21 72 NW10 30.13R WCI 20  
MT. PLEASANT * CLOUDY 30 27 86 NW12G17 30.12R WCI 21  
MUSCATINE * CLOUDY 30 25 80 NW17 30.12R WCI 18  
QUAD CITIES CLOUDY 32 28 85 W12 30.08R WCI 23  

 
 
IAZ062-063-075>077-085>089-095>099-210000-  
SOUTHEAST IOWA  
 
CITY SKY/WX TMP DP RH WIND PRES REMARKS
 
BURLINGTON FRZ RAIN 31 27 85 NW8 30.10R WCI 23  
FAIRFIELD * CLOUDY 27 21 80 NW18G24 30.13R WCI 13  
FORT MADISON * CLOUDY 30 28 93 NW12 30.09R WCI 21  
KEOKUK * CLOUDY 30 28 93 NW9G17 30.12R WCI 22  
OSKALOOSA * CLOUDY 25 22 87 NW8 30.15R WCI 16  
OTTUMWA CLOUDY 25 19 78 NW15G25 30.14R WCI 13  
WASHINGTON * CLOUDY 28 25 86 NW20 30.13R WCI 15  

 
 
ABBREVIATIONS USED IN REMARKS  
TC - TEMPERATURES IN CELSIUS  
WCI - WIND CHILL INDEX  
HX - HEAT INDEX  
VSB - VISIBILITY  

 
 
 
 
CLICK HERE TO GO TO PREVIOUS BULLETINS.

The Nexlab IA Page Main Text Page